Regional Weather Roundup
Issued by NWS

Home | Current Version | Previous Version | Graphics & Text | Print | Product List | Glossary On
Versions: 1 2 3 4 5 6 7 8 9 10 11 12 13 14 15 16 17 18 19 20 21 22 23 24 25 26 27 28 29 30 31 32 33 34 35 36 37 38 39 40 41 42 43 44 45 46 47 48 49 50
000
ASUS43 KLMK 141602
RWRKY
KENTUCKY REGIONAL WEATHER ROUNDUP
NATIONAL WEATHER SERVICE LOUISVILLE KY
1100 AM EST THU DEC 14 2017

NOTE "FAIR" INDICATES FEW OR NO CLOUDS BELOW 12,000 FEET
WITH NO SIGNIFICANT WEATHER AND/OR OBSTRUCTIONS TO VISIBILITY.

KYZ001>023-026-027-061>063-070>075-141700-
WESTERN AND SOUTH CENTRAL KENTUCKY

CITY           SKY/WX    TMP DP  RH WIND       PRES   REMARKS
PADUCAH        CLOUDY    36  23  59 NE8       30.06R WCI  30
HENDERSON      CLOUDY    34  21  59 N12       30.07R WCI  25
OWENSBORO      PTSUNNY  N/A N/A N/A N12       30.06R
HOPKINSVILLE   CLOUDY    35  21  56 N10       30.03R WCI  28
BOWLING GREEN  CLOUDY    35  22  58 N7        30.03R WCI  29
GLASGOW        NOT AVBL
$$

KYZ024-025-028>034-038-045-046-053-141700-
NORTH CENTRAL KENTUCKY

CITY           SKY/WX    TMP DP  RH WIND       PRES   REMARKS
LOUISVILLE/SDF CLOUDY    34  21  59 N12       30.03R WCI  25
LOUISVILLE/LOU CLOUDY    32  20  61 N12       30.04R WCI  23
FORT KNOX      CLOUDY    34  20  57 N8        30.00R WCI  27
$$

KYZ035>037-039>044-047>052-055>060-089>105-141700-
NORTHEAST KENTUCKY

CITY           SKY/WX    TMP DP  RH WIND       PRES   REMARKS
LEXINGTON      CLOUDY    32  20  61 NE8       29.99R WCI  25
COVINGTON      CLOUDY    27  18  69 N10       30.01R WCI  17
FRANKFORT      CLOUDY    32  15  49 N8        29.99R WCI  25
$$

KYZ054-064>069-076>088-106>120-141700-
SOUTHEAST KENTUCKY

CITY           SKY/WX    TMP DP  RH WIND       PRES   REMARKS
JACKSON        CLOUDY    34  21  59 N5        29.94R WCI  30
LONDON         CLOUDY    36  23  59 N7        29.95R WCI  30
SOMERSET       CLOUDY    32  23  69 N9        29.99R WCI  24
MIDDLESBORO    CLOUDY    39  27  61 NW7       29.94S WCI  34
MONTICELLO     CLOUDY    37  26  64 N14       29.99R WCI  28
$$




USA.gov is the U.S. government's official web portal to all federal, state and local government web resources and services.